Weather History for Stanton, MN

Change the Weather History Date:

Wednesday, January 1, 2014

  Actual Average (KLVN) Record (KLVN)
Temperature  
Mean Temperature -2 °F -  
Max Temperature 3 °F 21 °F 46 °F (1998)
Min Temperature -8 °F 4 °F -30 °F (1974)
Degree Days  
Heating Degree Days 68    
Moisture  
Dew Point -10 °F    
Average Humidity 67    
Maximum Humidity 73    
Minimum Humidity 63    
Precipitation  
Precipitation 0.00 in - - ()
Sea Level Pressure  
Sea Level Pressure 30.38 in    
Wind  
Wind Speed 7 mph (NNE)    
Max Wind Speed 10 mph    
Max Gust Speed -    
Visibility 10 miles    
Events      
Averages and records for this station are not official NWS values.
T = Trace of Precipitation, MM = Missing Value Source: NWS Daily Summary

Daily Weather History Graph

Daily Weather History Graph

Search for Another Location

Airport:

Trip Planner

Search our weather history database for the weather conditions in past years. The results will help you decide how hot, cold, wet, or windy it might be!

Date:

Astronomy

Jan. 01, 2014 Rise Set
Actual Time 7:48 AM CST 4:43 PM CST
Civil Twilight 7:15 AM CST 5:16 PM CST
Nautical Twilight 6:38 AM CST 5:53 PM CST
Astronomical Twilight 6:03 AM CST 6:28 PM CST
Moon 7:36 AM CST (1/1) 5:31 PM CST (1/1)
Length of Visible Light 10h 01m
Length of Day
8h 54m
New Moon, 0% of the Moon is Illuminated
Jan 1
New Moon
Jan 7
First Quarter
Jan 15
Full
Jan 23
Last Quarter
Jan 30
New

Hourly Weather History & Observations

Time (CST) Temp. Windchill Dew Point Humidity Pressure Visibility Wind Dir Wind Speed Gust Speed Precip Events Conditions
12:12 AM -8.5 °F -21.6 °F -15.7 °F 71% 30.35 in 10.0 mi NE 5.8 mph - N/A   Clear
12:32 AM -8.0 °F -19.2 °F -15.0 °F 71% 30.36 in 10.0 mi NNE 4.6 mph - N/A   Clear
12:52 AM -8.5 °F -21.6 °F -15.0 °F 73% 30.36 in 10.0 mi NE 5.8 mph - N/A   Mostly Cloudy
1:12 AM -6.9 °F -19.7 °F -14.8 °F 68% 30.36 in 10.0 mi NE 5.8 mph - N/A   Overcast
1:32 AM -6.7 °F -23.5 °F -14.6 °F 68% 30.36 in 10.0 mi NNE 9.2 mph - N/A   Mostly Cloudy
1:52 AM -6.5 °F -23.3 °F -14.3 °F 69% 30.36 in 10.0 mi NNE 9.2 mph - N/A   Overcast
2:12 AM -6.2 °F -22.8 °F -14.1 °F 69% 30.36 in 10.0 mi NNE 9.2 mph - N/A   Overcast
2:32 AM -6.2 °F -21.7 °F -14.8 °F 66% 30.35 in 10.0 mi NE 8.1 mph - N/A   Overcast
2:52 AM -6.0 °F -21.5 °F -14.3 °F 67% 30.35 in 10.0 mi ENE 8.1 mph - N/A   Overcast
3:12 AM -5.8 °F -18.4 °F -13.9 °F 68% 30.36 in 10.0 mi NE 5.8 mph - N/A   Overcast
3:32 AM -5.8 °F -19.9 °F -13.9 °F 68% 30.37 in 10.0 mi NE 6.9 mph - N/A   Overcast
3:52 AM -5.4 °F -18.0 °F -13.9 °F 67% 30.36 in 10.0 mi NE 5.8 mph - N/A   Overcast
4:12 AM -5.1 °F -19.1 °F -13.2 °F 68% 30.35 in 10.0 mi NE 6.9 mph - N/A   Overcast
4:32 AM -5.1 °F -20.4 °F -13.4 °F 67% 30.35 in 10.0 mi NE 8.1 mph - N/A   Overcast
4:53 AM -5.1 °F -19.1 °F -13.2 °F 68% 30.35 in 10.0 mi NE 6.9 mph - N/A   Overcast
5:12 AM -4.9 °F -18.8 °F -13.0 °F 68% 30.35 in 10.0 mi NE 6.9 mph - N/A   Overcast
5:32 AM -4.9 °F -18.8 °F -13.0 °F 68% 30.35 in 10.0 mi NE 6.9 mph - N/A   Overcast
5:52 AM -4.9 °F -17.4 °F -13.0 °F 68% 30.37 in 10.0 mi NNE 5.8 mph - N/A   Overcast
6:12 AM -4.7 °F -19.9 °F -13.0 °F 68% 30.37 in 10.0 mi NNE 8.1 mph - N/A   Overcast
6:32 AM -4.4 °F -19.5 °F -12.5 °F 68% 30.37 in 10.0 mi NNE 8.1 mph - N/A   Overcast
6:52 AM -4.5 °F -21.9 °F -12.3 °F 69% 30.38 in 10.0 mi NNE 10.4 mph - N/A   Overcast
7:12 AM -4.4 °F -19.5 °F -12.3 °F 69% 30.38 in 10.0 mi NNE 8.1 mph - N/A   Overcast
7:32 AM -4.2 °F -20.4 °F -12.1 °F 69% 30.38 in 10.0 mi NNE 9.2 mph - N/A   Overcast
7:52 AM -4.2 °F -20.4 °F -12.1 °F 69% 30.39 in 10.0 mi NE 9.2 mph - N/A   Overcast
8:12 AM -4.0 °F -20.2 °F -11.9 °F 69% 30.40 in 10.0 mi NNE 9.2 mph - N/A   Overcast
8:32 AM -3.6 °F -19.7 °F -11.4 °F 69% 30.41 in 10.0 mi NNE 9.2 mph - N/A   Overcast
8:52 AM -3.3 °F -20.3 °F -11.2 °F 69% 30.42 in 10.0 mi NNE 10.4 mph - N/A   Overcast
9:12 AM -2.9 °F -16.5 °F -11.2 °F 68% 30.41 in 10.0 mi NE 6.9 mph - N/A   Overcast
9:32 AM -2.7 °F -16.2 °F -11.2 °F 67% 30.42 in 10.0 mi NE 6.9 mph - N/A   Overcast
9:52 AM -1.8 °F -17.5 °F -10.5 °F 67% 30.43 in 10.0 mi NNE 9.2 mph - N/A   Overcast
10:12 AM -1.5 °F -16.0 °F -10.5 °F 66% 30.43 in 10.0 mi NE 8.1 mph - N/A   Overcast
10:33 AM -0.8 °F -13.9 °F -10.3 °F 64% 30.43 in 10.0 mi NNE 6.9 mph - N/A   Overcast
10:52 AM -0.6 °F -16.0 °F -9.9 °F 65% 30.43 in 10.0 mi NNE 9.2 mph - N/A   Overcast
11:12 AM -0.4 °F -16.7 °F -9.4 °F 66% 30.42 in 10.0 mi NNE 10.4 mph - N/A   Overcast
11:32 AM 0.1 °F -15.1 °F -9.0 °F 65% 30.41 in 10.0 mi North 9.2 mph - N/A   Overcast
11:52 AM 0.3 °F -13.8 °F -8.7 °F 66% 30.40 in 10.0 mi North 8.1 mph - N/A   Overcast
12:12 PM 0.9 °F -13.1 °F -8.5 °F 65% 30.40 in 10.0 mi North 8.1 mph - N/A   Overcast
12:32 PM 1.2 °F -12.7 °F -8.1 °F 65% 30.39 in 10.0 mi North 8.1 mph - N/A   Overcast
12:52 PM 1.6 °F -12.2 °F -8.1 °F 64% 30.38 in 10.0 mi NNE 8.1 mph - N/A   Overcast
1:12 PM 1.9 °F -11.8 °F -8.0 °F 63% 30.38 in 10.0 mi NNE 8.1 mph - N/A   Overcast
1:32 PM 2.3 °F -12.4 °F -7.2 °F 64% 30.38 in 10.0 mi North 9.2 mph - N/A   Overcast
1:52 PM 2.3 °F -10.2 °F -7.4 °F 64% 30.38 in 10.0 mi North 6.9 mph - N/A   Overcast
2:12 PM 2.7 °F -10.9 °F -7.1 °F 64% 30.38 in 10.0 mi North 8.1 mph - N/A   Overcast
2:32 PM 3.0 °F -10.5 °F -6.5 °F 65% 30.37 in 10.0 mi North 8.1 mph - N/A   Overcast
2:52 PM 3.0 °F -10.5 °F -6.7 °F 64% 30.37 in 10.0 mi North 8.1 mph - N/A   Overcast
3:12 PM 3.2 °F -11.3 °F -6.5 °F 64% 30.37 in 10.0 mi North 9.2 mph - N/A   Overcast
3:32 PM 3.2 °F -10.3 °F -6.2 °F 65% 30.38 in 10.0 mi NNE 8.1 mph - N/A   Overcast
3:52 PM 3.2 °F -11.3 °F -6.0 °F 66% 30.37 in 10.0 mi North 9.2 mph - N/A   Overcast
4:12 PM 3.2 °F -11.3 °F -5.8 °F 66% 30.38 in 10.0 mi North 9.2 mph - N/A   Overcast
4:32 PM 3.2 °F -12.2 °F -6.0 °F 66% 30.37 in 10.0 mi North 10.4 mph - N/A   Overcast
4:53 PM 3.2 °F -10.3 °F -5.8 °F 66% 30.38 in 10.0 mi North 8.1 mph - N/A   Overcast
5:12 PM 3.2 °F -10.3 °F -5.6 °F 67% 30.38 in 10.0 mi North 8.1 mph - N/A   Overcast
5:32 PM 3.2 °F -11.3 °F -5.4 °F 67% 30.39 in 10.0 mi North 9.2 mph - N/A   Overcast
5:52 PM 3.2 °F -10.3 °F -5.4 °F 67% 30.40 in 10.0 mi North 8.1 mph - N/A   Overcast
6:12 PM 3.2 °F -10.3 °F -5.3 °F 68% 30.40 in 10.0 mi North 8.1 mph - N/A   Overcast
6:32 PM 3.2 °F -11.3 °F -5.6 °F 67% 30.40 in 10.0 mi North 9.2 mph - N/A   Overcast
6:52 PM 3.0 °F -12.5 °F -5.6 °F 67% 30.40 in 10.0 mi North 10.4 mph - N/A   Overcast
7:13 PM 2.7 °F -12.0 °F -6.0 °F 67% 30.41 in 10.0 mi North 9.2 mph - N/A   Overcast
7:32 PM 2.3 °F -12.4 °F -6.0 °F 68% 30.40 in 10.0 mi North 9.2 mph - N/A   Overcast
7:52 PM 2.3 °F -11.4 °F -5.8 °F 69% 30.40 in 10.0 mi North 8.1 mph - N/A   Overcast
8:13 PM 1.9 °F -11.8 °F -6.3 °F 68% 30.40 in 10.0 mi North 8.1 mph - N/A   Overcast
8:32 PM 1.9 °F -11.8 °F -6.2 °F 69% 30.40 in 10.0 mi NNE 8.1 mph - N/A   Overcast
8:52 PM 1.8 °F -13.1 °F -6.3 °F 69% 30.39 in 10.0 mi NNE 9.2 mph - N/A   Overcast
9:12 PM 1.4 °F -11.3 °F -6.7 °F 69% 30.39 in 10.0 mi NNE 6.9 mph - N/A   Overcast
9:32 PM 1.4 °F -12.5 °F -7.1 °F 68% 30.39 in 10.0 mi NNE 8.1 mph - N/A   Overcast
9:52 PM 1.4 °F -12.5 °F -7.2 °F 67% 30.40 in 10.0 mi North 8.1 mph - N/A   Overcast
10:12 PM 1.4 °F -9.9 °F -7.1 °F 68% 30.40 in 10.0 mi North 5.8 mph - N/A   Overcast
10:32 PM 1.4 °F -6.2 °F -7.2 °F 67% 30.40 in 10.0 mi North 3.5 mph - N/A   Overcast
10:52 PM 1.4 °F -8.3 °F -6.9 °F 68% 30.39 in 10.0 mi NNE 4.6 mph - N/A   Overcast
11:12 PM 1.4 °F -9.9 °F -7.1 °F 68% 30.39 in 10.0 mi North 5.8 mph - N/A   Overcast
11:33 PM 1.4 °F -9.9 °F -7.8 °F 65% 30.39 in 10.0 mi NNE 5.8 mph - N/A   Mostly Cloudy
11:52 PM 1.4 °F -9.9 °F -8.0 °F 65% 30.39 in 10.0 mi North 5.8 mph - N/A   Scattered Clouds